Time,TemperatureF,DewpointF,PressureIn,WindDirection,WindDirectionDegrees,WindSpeedMPH,WindSpeedGustMPH,Humidity,HourlyPrecipIn,Conditions,Clouds,dailyrainin,SoftwareType,DateUTC
2013-02-22 00:09:00,34.5,26.0,29.84,SE,138,7.0,15.0,72,0.00,,,0.00,weatherlink.com 1.10,2013-02-22 00:09:00,
2013-02-22 00:24:00,34.6,26.0,29.84,SE,145,8.0,15.0,72,0.00,,,0.00,weatherlink.com 1.10,2013-02-22 00:24:00,
2013-02-22 00:39:00,34.7,27.0,29.84,SSE,148,7.0,20.0,72,0.00,,,0.00,weatherlink.com 1.10,2013-02-22 00:39:00,
2013-02-22 00:54:00,34.6,26.0,29.85,SE,145,7.0,14.0,72,0.00,,,0.00,weatherlink.com 1.10,2013-02-22 00:54:00,
2013-02-22 01:09:00,34.6,26.0,29.85,SSE,150,11.0,18.0,72,0.00,,,0.00,weatherlink.com 1.10,2013-02-22 01:09:00,
2013-02-22 01:24:00,34.5,26.0,29.85,South,177,6.0,12.0,71,0.00,,,0.00,weatherlink.com 1.10,2013-02-22 01:24:00,
2013-02-22 01:39:00,34.4,26.0,29.85,SSE,162,6.0,14.0,71,0.00,,,0.00,weatherlink.com 1.10,2013-02-22 01:39:00,
2013-02-22 01:54:00,34.3,26.0,29.85,South,191,5.0,12.0,71,0.00,,,0.00,weatherlink.com 1.10,2013-02-22 01:54:00,
2013-02-22 02:10:00,34.4,26.0,29.85,SE,145,7.0,16.0,71,0.00,,,0.00,weatherlink.com 1.10,2013-02-22 02:10:00,
2013-02-22 02:25:00,34.3,26.0,29.84,SSE,153,7.0,13.0,72,0.00,,,0.00,weatherlink.com 1.10,2013-02-22 02:25:00,
2013-02-22 02:40:00,34.0,26.0,29.84,SSE,148,9.0,12.0,71,0.00,,,0.00,weatherlink.com 1.10,2013-02-22 02:40:00,
2013-02-22 02:55:00,33.8,25.0,29.84,SSE,168,5.0,16.0,71,0.00,,,0.00,weatherlink.com 1.10,2013-02-22 02:55:00,
2013-02-22 03:10:00,33.7,25.0,29.85,SSE,165,7.0,10.0,71,0.00,,,0.00,weatherlink.com 1.10,2013-02-22 03:10:00,
2013-02-22 03:25:00,33.5,25.0,29.84,SE,145,7.0,12.0,72,0.00,,,0.00,weatherlink.com 1.10,2013-02-22 03:25:00,
2013-02-22 03:40:00,33.5,26.0,29.84,SSE,159,4.0,10.0,73,0.00,,,0.00,weatherlink.com 1.10,2013-02-22 03:40:00,
2013-02-22 03:55:00,33.5,25.0,29.84,SSE,162,5.0,19.0,72,0.00,,,0.00,weatherlink.com 1.10,2013-02-22 03:55:00,
2013-02-22 04:10:00,33.4,25.0,29.85,SSE,155,5.0,14.0,72,0.00,,,0.00,weatherlink.com 1.10,2013-02-22 04:10:00,
2013-02-22 04:25:00,33.3,25.0,29.85,SSE,153,11.0,13.0,72,0.00,,,0.00,weatherlink.com 1.10,2013-02-22 04:25:00,
2013-02-22 04:40:00,33.2,25.0,29.85,SSE,165,10.0,14.0,72,0.00,,,0.00,weatherlink.com 1.10,2013-02-22 04:40:00,
2013-02-22 04:55:00,33.1,25.0,29.85,SSE,159,5.0,13.0,71,0.00,,,0.00,weatherlink.com 1.10,2013-02-22 04:55:00,
2013-02-22 05:25:00,-999.0,-99.9,29.86,North,-999,-999.0,-999.0,-999,0.00,,,0.00,weatherlink.com 1.10,2013-02-22 05:25:00,
2013-02-22 05:40:00,-999.0,-99.9,29.86,North,-999,-999.0,-999.0,-999,0.00,,,0.00,weatherlink.com 1.10,2013-02-22 05:40:00,
2013-02-22 05:55:00,-999.0,-99.9,29.86,North,-999,-999.0,-999.0,-999,0.00,,,0.00,weatherlink.com 1.10,2013-02-22 05:55:00,
2013-02-22 06:10:00,-999.0,-99.9,29.86,North,-999,-999.0,-999.0,-999,0.00,,,0.00,weatherlink.com 1.10,2013-02-22 06:10:00,
2013-02-22 06:25:00,-999.0,-99.9,29.87,North,-999,-999.0,-999.0,-999,0.00,,,0.00,weatherlink.com 1.10,2013-02-22 06:25:00,
2013-02-22 06:40:00,-999.0,-99.9,29.87,North,-999,-999.0,-999.0,-999,0.00,,,0.00,weatherlink.com 1.10,2013-02-22 06:40:00,
2013-02-22 06:55:00,-999.0,-99.9,29.87,North,-999,-999.0,-999.0,-999,0.00,,,0.00,weatherlink.com 1.10,2013-02-22 06:55:00,
2013-02-22 07:11:00,-999.0,-99.9,29.88,North,-999,-999.0,-999.0,-999,0.00,,,0.00,weatherlink.com 1.10,2013-02-22 07:11:00,
2013-02-22 07:25:00,-999.0,-99.9,29.88,North,-999,-999.0,-999.0,-999,0.00,,,0.00,weatherlink.com 1.10,2013-02-22 07:25:00,
2013-02-22 07:41:00,-999.0,-99.9,29.88,North,-999,-999.0,-999.0,-999,0.00,,,0.00,weatherlink.com 1.10,2013-02-22 07:41:00,
2013-02-22 07:56:00,-999.0,-99.9,29.88,North,-999,-999.0,-999.0,-999,0.00,,,0.00,weatherlink.com 1.10,2013-02-22 07:56:00,
2013-02-22 08:16:00,-999.0,-99.9,29.89,North,-999,-999.0,-999.0,-999,0.00,,,0.00,weatherlink.com 1.10,2013-02-22 08:16:00,
2013-02-22 08:26:00,-999.0,-99.9,29.89,North,-999,-999.0,-999.0,-999,0.00,,,0.00,weatherlink.com 1.10,2013-02-22 08:26:00,
2013-02-22 08:41:00,-999.0,-99.9,29.89,North,-999,-999.0,-999.0,-999,0.00,,,0.00,weatherlink.com 1.10,2013-02-22 08:41:00,
2013-02-22 08:56:00,-999.0,-99.9,29.89,North,-999,-999.0,-999.0,-999,0.00,,,0.00,weatherlink.com 1.10,2013-02-22 08:56:00,
2013-02-22 09:11:00,-999.0,-99.9,29.89,North,-999,-999.0,-999.0,-999,0.00,,,0.00,weatherlink.com 1.10,2013-02-22 09:11:00,
2013-02-22 09:26:00,33.5,25.0,29.89,SSE,156,6.0,12.0,72,0.00,,,0.00,weatherlink.com 1.10,2013-02-22 09:26:00,
2013-02-22 09:41:00,33.8,25.0,29.89,SSE,166,9.0,13.0,69,0.00,,,0.00,weatherlink.com 1.10,2013-02-22 09:41:00,
2013-02-22 09:56:00,33.9,25.0,29.89,SSE,165,12.0,18.0,69,0.00,,,0.00,weatherlink.com 1.10,2013-02-22 09:56:00,
2013-02-22 10:11:00,34.0,25.0,29.89,SE,134,8.0,14.0,69,0.00,,,0.00,weatherlink.com 1.10,2013-02-22 10:11:00,
2013-02-22 10:26:00,34.3,25.0,29.89,SE,132,5.0,12.0,70,0.00,,,0.00,weatherlink.com 1.10,2013-02-22 10:26:00,
2013-02-22 10:41:00,34.3,25.0,29.89,SSE,153,10.0,14.0,69,0.00,,,0.00,weatherlink.com 1.10,2013-02-22 10:41:00,
2013-02-22 10:56:00,34.3,25.0,29.89,SSE,148,9.0,15.0,68,0.00,,,0.00,weatherlink.com 1.10,2013-02-22 10:56:00,
2013-02-22 11:11:00,34.3,25.0,29.90,SSE,156,9.0,12.0,69,0.00,,,0.00,weatherlink.com 1.10,2013-02-22 11:11:00,
2013-02-22 11:27:00,34.3,25.0,29.89,SSE,163,9.0,14.0,69,0.00,,,0.00,weatherlink.com 1.10,2013-02-22 11:27:00,
2013-02-22 11:42:00,34.4,25.0,29.89,South,191,6.0,15.0,69,0.00,,,0.00,weatherlink.com 1.10,2013-02-22 11:42:00,
2013-02-22 11:57:00,34.5,25.0,29.90,SSE,150,13.0,15.0,69,0.00,,,0.00,weatherlink.com 1.10,2013-02-22 11:57:00,
2013-02-22 12:12:00,34.4,25.0,29.90,SSE,150,3.0,17.0,69,0.00,,,0.00,weatherlink.com 1.10,2013-02-22 12:12:00,
2013-02-22 12:27:00,34.7,25.0,29.90,SSE,148,11.0,12.0,69,0.00,,,0.00,weatherlink.com 1.10,2013-02-22 12:27:00,
2013-02-22 12:42:00,34.5,26.0,29.89,SSE,163,5.0,12.0,70,0.00,,,0.00,weatherlink.com 1.10,2013-02-22 12:42:00,
2013-02-22 12:57:00,34.8,26.0,29.89,SSE,156,5.0,11.0,70,0.00,,,0.00,weatherlink.com 1.10,2013-02-22 12:57:00,
2013-02-22 13:12:00,34.7,25.0,29.89,SE,139,6.0,13.0,69,0.00,,,0.00,weatherlink.com 1.10,2013-02-22 13:12:00,
2013-02-22 13:27:00,34.7,26.0,29.89,SE,145,5.0,12.0,70,0.00,,,0.00,weatherlink.com 1.10,2013-02-22 13:27:00,
2013-02-22 13:42:00,34.8,26.0,29.89,SE,145,6.0,16.0,70,0.00,,,0.00,weatherlink.com 1.10,2013-02-22 13:42:00,
2013-02-22 13:57:00,34.9,26.0,29.89,SSE,156,6.0,13.0,70,0.00,,,0.00,weatherlink.com 1.10,2013-02-22 13:57:00,
2013-02-22 14:12:00,34.8,26.0,29.89,SSE,150,11.0,13.0,69,0.00,,,0.00,weatherlink.com 1.10,2013-02-22 14:12:00,
2013-02-22 14:27:00,34.9,25.0,29.89,SSE,148,9.0,13.0,68,0.00,,,0.00,weatherlink.com 1.10,2013-02-22 14:27:00,
2013-02-22 14:42:00,34.8,26.0,29.89,SE,128,6.0,12.0,69,0.00,,,0.00,weatherlink.com 1.10,2013-02-22 14:42:00,
2013-02-22 14:57:00,34.9,26.0,29.89,SE,135,7.0,14.0,69,0.00,,,0.00,weatherlink.com 1.10,2013-02-22 14:57:00,
2013-02-22 15:12:00,34.9,26.0,29.89,SE,145,6.0,11.0,69,0.00,,,0.00,weatherlink.com 1.10,2013-02-22 15:12:00,
2013-02-22 15:27:00,35.0,26.0,29.89,SSE,156,5.0,13.0,69,0.00,,,0.00,weatherlink.com 1.10,2013-02-22 15:27:00,
2013-02-22 15:42:00,35.0,26.0,29.89,ESE,120,6.0,8.0,69,0.00,,,0.00,weatherlink.com 1.10,2013-02-22 15:42:00,
2013-02-22 15:58:00,35.0,25.0,29.89,SE,125,8.0,11.0,68,0.00,,,0.00,weatherlink.com 1.10,2013-02-22 15:58:00,
2013-02-22 16:12:00,34.9,25.0,29.89,SSE,159,4.0,8.0,68,0.00,,,0.00,weatherlink.com 1.10,2013-02-22 16:12:00,
2013-02-22 16:27:00,34.9,25.0,29.89,ESE,105,7.0,9.0,67,0.00,,,0.00,weatherlink.com 1.10,2013-02-22 16:27:00,
2013-02-22 16:42:00,34.9,25.0,29.89,SE,129,7.0,8.0,67,0.00,,,0.00,weatherlink.com 1.10,2013-02-22 16:42:00,
2013-02-22 16:57:00,34.9,25.0,29.90,SE,132,7.0,9.0,68,0.00,,,0.00,weatherlink.com 1.10,2013-02-22 16:57:00,
2013-02-22 17:12:00,34.9,26.0,29.90,SE,128,5.0,7.0,69,0.00,,,0.00,weatherlink.com 1.10,2013-02-22 17:12:00,
2013-02-22 17:27:00,35.0,26.0,29.90,SSE,153,5.0,6.0,70,0.00,,,0.00,weatherlink.com 1.10,2013-02-22 17:27:00,
2013-02-22 17:42:00,35.0,26.0,29.90,SE,145,2.0,5.0,70,0.00,,,0.00,weatherlink.com 1.10,2013-02-22 17:42:00,
2013-02-22 18:12:00,34.8,26.0,29.91,ESE,110,2.0,2.0,71,0.00,,,0.00,weatherlink.com 1.10,2013-02-22 18:12:00,
2013-02-22 18:27:00,-999.0,-99.9,29.91,North,-999,-999.0,-999.0,-999,0.00,,,0.00,weatherlink.com 1.10,2013-02-22 18:27:00,
2013-02-22 18:42:00,-999.0,-99.9,29.91,North,-999,-999.0,-999.0,-999,0.00,,,0.00,weatherlink.com 1.10,2013-02-22 18:42:00,
2013-02-22 18:57:00,-999.0,-99.9,29.91,North,-999,-999.0,-999.0,-999,0.00,,,0.00,weatherlink.com 1.10,2013-02-22 18:57:00,
2013-02-22 19:12:00,-999.0,-99.9,29.91,North,-999,-999.0,-999.0,-999,0.00,,,0.00,weatherlink.com 1.10,2013-02-22 19:12:00,
2013-02-22 19:27:00,-999.0,-99.9,29.92,North,-999,-999.0,-999.0,-999,0.00,,,0.00,weatherlink.com 1.10,2013-02-22 19:27:00,
2013-02-22 19:42:00,-999.0,-99.9,29.92,North,-999,-999.0,-999.0,-999,0.00,,,0.00,weatherlink.com 1.10,2013-02-22 19:42:00,
2013-02-22 19:57:00,-999.0,-99.9,29.92,North,-999,-999.0,-999.0,-999,0.00,,,0.00,weatherlink.com 1.10,2013-02-22 19:57:00,
2013-02-22 20:13:00,-999.0,-99.9,29.92,North,-999,-999.0,-999.0,-999,0.00,,,0.00,weatherlink.com 1.10,2013-02-22 20:13:00,
2013-02-22 20:28:00,-999.0,-99.9,29.92,North,-999,-999.0,-999.0,-999,0.00,,,0.00,weatherlink.com 1.10,2013-02-22 20:28:00,
2013-02-22 20:43:00,-999.0,-99.9,29.92,North,-999,-999.0,-999.0,-999,0.00,,,0.00,weatherlink.com 1.10,2013-02-22 20:43:00,
2013-02-22 20:58:00,-999.0,-99.9,29.92,North,-999,-999.0,-999.0,-999,0.00,,,0.00,weatherlink.com 1.10,2013-02-22 20:58:00,
2013-02-22 21:13:00,-999.0,-99.9,29.92,North,-999,-999.0,-999.0,-999,0.00,,,0.00,weatherlink.com 1.10,2013-02-22 21:13:00,
2013-02-22 21:28:00,-999.0,-99.9,29.92,North,-999,-999.0,-999.0,-999,0.00,,,0.00,weatherlink.com 1.10,2013-02-22 21:28:00,
2013-02-22 21:43:00,-999.0,-99.9,29.92,North,-999,-999.0,-999.0,-999,0.00,,,0.00,weatherlink.com 1.10,2013-02-22 21:43:00,
2013-02-22 21:58:00,-999.0,-99.9,29.92,North,-999,-999.0,-999.0,-999,0.00,,,0.00,weatherlink.com 1.10,2013-02-22 21:58:00,
2013-02-22 22:13:00,-999.0,-99.9,29.92,North,-999,-999.0,-999.0,-999,0.00,,,0.00,weatherlink.com 1.10,2013-02-22 22:13:00,
2013-02-22 22:28:00,-999.0,-99.9,29.92,North,-999,-999.0,-999.0,-999,0.00,,,0.00,weatherlink.com 1.10,2013-02-22 22:28:00,
2013-02-22 22:43:00,-999.0,-99.9,29.92,North,-999,-999.0,-999.0,-999,0.00,,,0.00,weatherlink.com 1.10,2013-02-22 22:43:00,
2013-02-22 22:58:00,-999.0,-99.9,29.93,North,-999,-999.0,-999.0,-999,0.00,,,0.00,weatherlink.com 1.10,2013-02-22 22:58:00,
2013-02-22 23:13:00,-999.0,-99.9,29.93,North,-999,-999.0,-999.0,-999,0.00,,,0.00,weatherlink.com 1.10,2013-02-22 23:13:00,
2013-02-22 23:29:00,-999.0,-99.9,29.93,North,-999,-999.0,-999.0,-999,0.00,,,0.00,weatherlink.com 1.10,2013-02-22 23:29:00,
2013-02-22 23:44:00,-999.0,-99.9,29.93,North,-999,-999.0,-999.0,-999,0.00,,,0.00,weatherlink.com 1.10,2013-02-22 23:44:00,
2013-02-22 23:59:00,-999.0,-99.9,29.93,North,-999,-999.0,-999.0,-999,0.00,,,0.00,weatherlink.com 1.10,2013-02-22 23:59:00,